FW6581 Weather Reports


Display with metric or nautical units.
time (UTC)temp
F
wind
direction
speed
MPH
gust
MPH
rain 1hr
in
rain 24hr
in
rain mn
in
humidity
%
barometer
mb
20210616161710 89 197 1.0 2.0 0.00 0.68 0.01 74 1016.9
20210616161031 90 167 0.0 1.0 0.00 0.68 0.01 75 1016.9
20210616160536 89 200 0.0 1.0 0.00 0.68 0.01 76 1017.1
20210616160142 89 145 0.0 3.0 0.00 0.68 0.01 77 1017.3
20210616155532 88 247 0.0 3.0 0.00 0.68 0.01 79 1017.1
20210616155040 87 0 0.0 1.0 0.00 0.68 0.01 80 1017.3
20210616154623 87 188 0.0 2.0 0.00 0.68 0.01 81 1017.4
20210616154031 86 235 0.0 2.0 0.00 0.68 0.01 81 1017.4
20210616153530 87 214 0.0 1.0 0.00 0.68 0.01 80 1017.1
20210616153128 87 237 0.0 1.0 0.00 0.68 0.01 81 1017.1
20210616152529 86 210 0.0 2.0 0.00 0.68 0.01 82 1017.2
20210616152058 86 0 0.0 2.0 0.00 0.68 0.01 83 1017.2
20210616151613 86 144 0.0 2.0 0.00 0.68 0.01 82 1017.3
20210616151032 85 160 0.0 1.0 0.00 0.68 0.01 84 1017.5
20210616150536 85 0 0.0 2.0 0.00 0.68 0.01 86 1017.5
20210616150146 85 0 0.0 2.0 0.00 0.68 0.01 87 1017.5
20210616145535 84 132 0.0 1.0 0.00 0.68 0.01 87 1017.6
20210616145036 84 219 0.0 1.0 0.00 0.68 0.01 88 1017.6
20210616144629 83 0 0.0 1.0 0.00 0.68 0.01 89 1017.5
20210616144030 83 0 0.0 1.0 0.00 0.68 0.01 91 1017.4
20210616143529 82 0 0.0 1.0 0.00 0.68 0.01 92 1017.4
20210616143057 82 0 0.0 0.0 0.00 0.68 0.01 94 1017.4
20210616142538 82 0 0.0 0.0 0.00 0.68 0.01 95 1017.4
20210616142034 81 0 0.0 1.0 0.00 0.68 0.01 96 1017.4
20210616141639 81 0 0.0 1.0 0.00 0.68 0.01 96 1017.3
20210616141047 80 0 0.0 0.0 0.00 0.68 0.01 97 1017.2
20210616140534 80 0 0.0 0.0 0.00 0.68 0.01 97 1017.1
20210616140054 80 0 0.0 0.0 0.00 0.68 0.01 97 1017.1
20210616135536 79 0 0.0 0.0 0.00 0.68 0.01 97 1017.1
20210616135043 79 0 0.0 0.0 0.00 0.68 0.01 97 1017.1
20210616134608 79 0 0.0 1.0 0.00 0.68 0.01 97 1017.2
20210616134037 79 0 0.0 1.0 0.00 0.68 0.01 97 1017.1
20210616133529 79 0 0.0 0.0 0.00 0.68 0.01 97 1017.2
20210616133117 79 0 0.0 0.0 0.00 0.68 0.01 97 1017.0
20210616132534 79 0 0.0 0.0 0.00 0.68 0.01 98 1016.9
20210616132033 78 0 0.0 0.0 0.00 0.68 0.01 97 1017.1
20210616131545 78 0 0.0 1.0 0.00 0.68 0.01 97 1017.0
20210616131032 78 0 0.0 1.0 0.00 0.68 0.01 97 1017.2
20210616130532 78 0 0.0 0.0 0.00 0.68 0.01 98 1017.1
20210616130111 78 0 0.0 0.0 0.00 0.68 0.01 98 1017.0
20210616125539 77 0 0.0 0.0 0.00 0.68 0.01 98 1017.0
20210616125033 77 0 0.0 0.0 0.00 0.68 0.01 98 1016.9
20210616124551 77 0 0.0 0.0 0.00 0.68 0.01 98 1016.7
20210616124037 77 0 0.0 0.0 0.00 0.68 0.01 98 1016.7
20210616123603 77 0 0.0 0.0 0.00 0.68 0.01 98 1016.7
20210616123150 77 0 0.0 0.0 0.00 0.68 0.01 98 1016.5
20210616122531 76 0 0.0 0.0 0.00 0.68 0.01 98 1016.5
20210616122032 76 0 0.0 0.0 0.00 0.68 0.01 98 1016.4
20210616121632 76 0 0.0 0.0 0.00 0.68 0.01 98 1016.3
20210616121032 75 0 0.0 0.0 0.00 0.68 0.01 98 1016.2
20210616120542 75 0 0.0 0.0 0.00 0.68 0.01 98 1016.2
20210616120053 75 0 0.0 0.0 0.00 0.68 0.01 97 1016.1
20210616115544 75 0 0.0 0.0 0.00 0.68 0.01 97 1016.1
20210616115030 75 0 0.0 0.0 0.00 0.68 0.01 97 1016.1
20210616114544 75 0 0.0 0.0 0.00 0.68 0.01 97 1016.0
20210616114034 75 0 0.0 0.0 0.00 0.68 0.01 97 1016.0
20210616113530 74 0 0.0 0.0 0.00 0.68 0.01 97 1015.9
20210616113048 74 0 0.0 0.0 0.00 0.68 0.01 97 1015.9
20210616112540 74 0 0.0 0.0 0.00 0.68 0.01 97 1015.7
20210616112032 74 0 0.0 0.0 0.00 0.68 0.01 97 1015.7
20210616111610 74 0 0.0 0.0 0.00 0.68 0.01 97 1015.6
20210616111034 74 0 0.0 0.0 0.00 0.68 0.01 97 1015.7
20210616110533 74 0 0.0 0.0 0.00 0.68 0.01 97 1015.5
20210616110035 74 0 0.0 0.0 0.00 0.68 0.01 97 1015.6
20210616105615 74 0 0.0 0.0 0.00 0.68 0.01 97 1015.5
20210616105030 74 0 0.0 0.0 0.00 0.68 0.01 97 1015.5
20210616104544 74 0 0.0 0.0 0.00 0.68 0.01 97 1015.4
20210616104030 74 0 0.0 0.0 0.00 0.68 0.01 97 1015.5
20210616103530 74 0 0.0 0.0 0.00 0.68 0.01 97 1015.4
20210616103145 74 0 0.0 0.0 0.00 0.68 0.01 97 1015.5
20210616102533 74 0 0.0 0.0 0.00 0.68 0.01 97 1015.4
20210616102032 74 0 0.0 0.0 0.00 0.68 0.01 97 1015.3
20210616101710 74 0 0.0 0.0 0.00 0.68 0.01 97 1015.3
20210616101035 74 0 0.0 0.0 0.00 0.68 0.01 97 1015.3
20210616100530 74 0 0.0 0.0 0.00 0.68 0.01 97 1015.3
20210616100119 74 0 0.0 0.0 0.00 0.68 0.01 97 1015.4
20210616095529 74 0 0.0 0.0 0.00 0.68 0.01 97 1015.4
20210616095037 74 0 0.0 0.0 0.00 0.68 0.01 97 1015.5
20210616094622 74 0 0.0 0.0 0.00 0.68 0.01 97 1015.4
20210616094033 74 0 0.0 0.0 0.00 0.68 0.01 97 1015.3
20210616093538 74 0 0.0 0.0 0.00 0.68 0.01 97 1015.4
20210616093055 74 0 0.0 0.0 0.00 0.68 0.01 97 1015.3
20210616092531 74 0 0.0 0.0 0.00 0.68 0.01 97 1015.2
20210616092035 74 0 0.0 0.0 0.00 0.68 0.01 97 1015.2
20210616091606 74 0 0.0 0.0 0.00 0.68 0.01 97 1015.2
20210616091033 74 0 0.0 0.0 0.00 0.68 0.01 97 1015.1
20210616090530 74 0 0.0 0.0 0.00 0.68 0.01 97 1015.1
20210616090105 74 0 0.0 0.0 0.00 0.68 0.01 97 1015.1
20210616085530 74 0 0.0 0.0 0.00 0.68 0.01 97 1015.2
20210616085030 74 0 0.0 0.0 0.00 0.68 0.01 97 1015.2
20210616084551 74 0 0.0 0.0 0.00 0.68 0.01 97 1015.2
20210616084033 74 0 0.0 0.0 0.00 0.68 0.01 97 1015.2
20210616083529 74 0 0.0 0.0 0.00 0.68 0.01 97 1015.3
20210616083048 74 0 0.0 0.0 0.00 0.68 0.01 97 1015.3
20210616082530 74 0 0.0 0.0 0.00 0.68 0.01 97 1015.2
20210616082032 74 0 0.0 0.0 0.00 0.68 0.01 97 1015.2
20210616081610 74 0 0.0 0.0 0.00 0.68 0.01 97 1015.4
20210616081035 74 0 0.0 0.0 0.00 0.68 0.01 97 1015.5
20210616080558 74 0 0.0 0.0 0.00 0.68 0.01 97 1015.5
20210616080113 74 0 0.0 0.0 0.00 0.68 0.01 97 1015.6
20210616075531 74 0 0.0 0.0 0.00 0.68 0.01 97 1015.6
20210616075033 74 0 0.0 0.0 0.00 0.68 0.01 97 1015.6
20210616074553 74 0 0.0 0.0 0.00 0.68 0.01 97 1015.5
20210616074032 74 0 0.0 0.0 0.00 0.68 0.01 97 1015.5
20210616073532 74 0 0.0 0.0 0.00 0.68 0.01 97 1015.6
20210616073212 74 0 0.0 0.0 0.00 0.68 0.01 97 1015.7
20210616072538 74 0 0.0 0.0 0.00 0.68 0.01 97 1015.8
20210616072045 74 0 0.0 0.0 0.00 0.68 0.01 97 1015.8
20210616071614 74 0 0.0 0.0 0.00 0.68 0.01 97 1015.8
20210616071031 74 0 0.0 0.0 0.00 0.68 0.01 97 1016.0
20210616070531 74 0 0.0 0.0 0.00 0.68 0.01 97 1015.9
20210616070150 74 0 0.0 0.0 0.00 0.68 0.01 97 1015.9
20210616065554 74 0 0.0 0.0 0.00 0.68 0.01 97 1016.0
20210616065031 74 0 0.0 0.0 0.00 0.68 0.01 97 1016.0
20210616064626 74 0 0.0 0.0 0.00 0.68 0.01 97 1016.0
20210616064029 74 0 0.0 0.0 0.00 0.68 0.01 97 1016.0
20210616063529 74 0 0.0 0.0 0.00 0.68 0.01 97 1016.0
20210616063108 74 0 0.0 0.0 0.00 0.68 0.01 97 1016.0
20210616062534 74 0 0.0 0.0 0.00 0.68 0.01 97 1016.1
20210616062035 74 0 0.0 0.0 0.00 0.68 0.01 97 1016.1
20210616061546 74 0 0.0 1.0 0.00 0.68 0.01 97 1016.4
20210616061032 74 0 0.0 1.0 0.00 0.68 0.01 97 1016.4
20210616060600 74 0 0.0 0.0 0.00 0.68 0.01 97 1016.5
20210616060117 74 0 0.0 0.0 0.00 0.68 0.01 97 1016.6
20210616055531 74 0 0.0 0.0 0.00 0.68 0.01 97 1016.9
20210616055042 74 0 0.0 0.0 0.00 0.68 0.01 97 1017.1
20210616054612 74 0 0.0 0.0 0.00 0.68 0.01 97 1017.0
20210616054046 74 0 0.0 1.0 0.00 0.68 0.01 97 1017.0
20210616053533 74 0 0.0 1.0 0.00 0.68 0.01 97 1017.2
20210616053158 74 0 0.0 0.0 0.00 0.68 0.01 97 1017.1
20210616052540 74 0 0.0 1.0 0.00 0.68 0.01 97 1017.1
20210616052101 74 0 0.0 1.0 0.00 0.68 0.01 97 1017.2
20210616051620 74 260 0.0 0.0 0.00 0.68 0.01 97 1017.3
20210616051031 74 0 0.0 0.0 0.00 0.68 0.01 97 1017.1
20210616050533 74 0 0.0 0.0 0.00 0.68 0.01 97 1017.3
20210616050047 74 0 0.0 0.0 0.01 0.68 0.01 97 1017.3
20210616045536 74 0 0.0 0.0 0.01 0.68 0.01 97 1017.4
20210616045030 74 0 0.0 0.0 0.02 0.68 0.01 97 1017.5
20210616044552 74 0 0.0 0.0 0.03 0.68 0.01 96 1017.6
20210616044029 74 0 0.0 1.0 0.04 0.68 0.01 96 1017.5
20210616043538 74 39 0.0 1.0 0.05 0.68 0.01 96 1017.4
20210616043140 74 0 0.0 0.0 0.05 0.68 0.01 96 1017.5
20210616042539 75 0 0.0 1.0 0.05 0.68 0.01 96 1017.6
20210616042030 75 0 0.0 1.0 0.06 0.68 0.01 97 1017.8
20210616041613 75 0 0.0 0.0 0.07 0.68 0.01 97 1018.0
20210616041029 74 0 0.0 0.0 0.08 0.68 0.01 96 1018.4
20210616040543 74 0 0.0 1.0 0.09 0.68 0.01 96 1018.5
20210616040219 74 0 0.0 1.0 0.08 0.67 0.00 96 1018.3
20210616035535 74 0 0.0 1.0 0.08 0.66 0.66 96 1018.3
20210616035030 74 0 0.0 1.0 0.08 0.66 0.66 96 1018.4
20210616034629 74 0 0.0 0.0 0.07 0.65 0.65 96 1018.1
20210616034038 74 0 0.0 0.0 0.06 0.64 0.64 96 1017.9
20210616033536 75 0 0.0 1.0 0.05 0.63 0.63 96 1018.1
20210616033122 75 0 0.0 1.0 0.05 0.63 0.63 96 1018.1
20210616032530 75 0 0.0 1.0 0.04 0.62 0.62 96 1018.1
20210616032033 75 36 0.0 0.0 0.04 0.62 0.62 96 1018.1
20210616031557 75 0 0.0 1.0 0.03 0.61 0.61 96 1017.8
20210616031041 74 0 0.0 1.0 0.02 0.60 0.60 96 1018.0
20210616030532 74 0 0.0 0.0 0.01 0.58 0.58 96 1018.3
20210616030113 74 0 0.0 0.0 0.01 0.58 0.58 96 1018.2
20210616025530 74 0 0.0 0.0 0.00 0.58 0.58 96 1018.3
20210616025030 74 0 0.0 0.0 0.00 0.58 0.58 96 1018.2
20210616024620 74 0 0.0 0.0 0.00 0.58 0.58 96 1018.2
20210616024046 74 0 0.0 0.0 0.00 0.58 0.58 96 1018.1
20210616023532 74 0 0.0 0.0 0.00 0.58 0.58 96 1018.1
20210616023122 74 0 0.0 0.0 0.00 0.58 0.58 96 1017.9
20210616022535 74 0 0.0 0.0 0.00 0.58 0.58 96 1017.8
20210616022030 74 0 0.0 0.0 0.00 0.58 0.58 96 1017.9
20210616021605 74 0 0.0 0.0 0.00 0.58 0.58 96 1017.8
20210616021054 74 0 0.0 0.0 0.00 0.58 0.58 96 1017.6
20210616020540 74 0 0.0 0.0 0.00 0.58 0.58 96 1017.6
20210616020148 74 0 0.0 0.0 0.00 0.58 0.58 96 1017.7
20210616015529 74 0 0.0 0.0 0.00 0.62 0.58 96 1017.6
20210616015031 74 0 0.0 0.0 0.00 0.62 0.58 96 1017.7
20210616014607 74 0 0.0 0.0 0.00 0.62 0.58 96 1017.7
20210616014033 74 0 0.0 0.0 0.00 0.62 0.58 96 1017.6
20210616013534 74 0 0.0 0.0 0.00 0.62 0.58 96 1017.5
20210616013148 74 0 0.0 0.0 0.00 0.62 0.58 96 1017.5
20210616012536 74 0 0.0 0.0 0.00 0.62 0.58 95 1017.5
20210616012030 74 0 0.0 0.0 0.00 0.62 0.58 95 1017.4
20210616011724 74 0 0.0 0.0 0.00 0.62 0.58 95 1017.4
20210616011030 74 0 0.0 1.0 0.00 0.62 0.58 95 1017.2
20210616010535 74 0 0.0 1.0 0.00 0.62 0.58 95 1017.3
20210616010122 74 0 0.0 1.0 0.00 0.62 0.58 95 1017.3
20210616005530 74 0 0.0 0.0 0.00 0.64 0.58 95 1017.3
20210616005034 74 0 0.0 0.0 0.00 0.64 0.58 95 1017.4
20210616004549 74 0 0.0 0.0 0.00 0.64 0.58 95 1017.5
20210616004032 74 0 0.0 0.0 0.00 0.64 0.58 95 1017.6
20210616003531 74 0 0.0 0.0 0.00 0.64 0.58 95 1017.6
20210616003104 74 0 0.0 0.0 0.00 0.64 0.58 95 1017.6
20210616002532 74 0 0.0 0.0 0.00 0.64 0.58 95 1017.5
20210616002033 74 0 0.0 0.0 0.00 0.64 0.58 95 1017.6
20210616001606 75 0 0.0 0.0 0.00 0.64 0.58 95 1017.7
20210616001029 75 0 0.0 0.0 0.00 0.64 0.58 94 1017.6
20210616000531 75 0 0.0 0.0 0.00 0.64 0.58 94 1017.5
20210616000122 75 0 0.0 0.0 0.00 0.64 0.58 94 1017.6
20210615235531 75 0 0.0 0.0 0.00 0.64 0.58 94 1017.5
20210615235034 75 0 0.0 0.0 0.00 0.64 0.58 94 1017.6
20210615234613 75 0 0.0 1.0 0.00 0.64 0.58 94 1017.5
20210615234030 75 0 0.0 1.0 0.00 0.64 0.58 94 1017.5
20210615233531 75 0 0.0 1.0 0.00 0.64 0.58 94 1017.5
20210615233121 75 0 0.0 1.0 0.00 0.64 0.58 94 1017.3
20210615232530 75 0 0.0 1.0 0.00 0.64 0.58 94 1017.5
20210615232036 75 0 0.0 1.0 0.00 0.64 0.58 94 1017.4
20210615231601 75 0 0.0 1.0 0.00 0.64 0.58 94 1017.4
20210615231030 75 293 0.0 2.0 0.00 0.64 0.58 94 1017.4
20210615230531 75 289 0.0 2.0 0.00 0.64 0.58 93 1017.3
20210615230049 75 91 0.0 2.0 0.00 0.64 0.58 94 1017.3
20210615225530 75 90 0.0 2.0 0.00 0.64 0.58 94 1017.3
20210615225033 75 77 0.0 3.0 0.00 0.64 0.58 94 1017.2
20210615224624 75 0 0.0 4.0 0.00 0.64 0.58 94 1017.2
20210615224038 75 317 0.0 4.0 0.00 0.64 0.58 93 1017.0
20210615223534 75 268 1.0 4.0 0.00 0.64 0.58 93 1017.0
20210615223127 75 289 1.0 7.0 0.00 0.64 0.58 93 1017.2
20210615222544 75 23 1.0 7.0 0.00 0.64 0.58 93 1017.2
20210615222031 75 37 1.0 3.0 0.00 0.64 0.58 93 1017.3
20210615221630 75 18 1.0 3.0 0.00 0.64 0.58 93 1017.1
20210615221033 75 293 0.0 3.0 0.00 0.64 0.58 92 1017.0
20210615220532 75 324 0.0 5.0 0.00 0.64 0.58 92 1017.0
20210615220100 75 300 1.0 5.0 0.00 0.64 0.58 93 1017.0
20210615215533 75 0 1.0 3.0 0.00 0.65 0.58 93 1017.3
20210615215034 76 72 1.0 3.0 0.00 0.65 0.58 94 1017.1
20210615214606 77 21 0.0 1.0 0.00 0.65 0.58 94 1017.0
20210615214033 77 0 0.0 1.0 0.01 0.65 0.58 94 1016.8
20210615213540 77 0 0.0 1.0 0.06 0.65 0.58 94 1016.7
20210615213048 77 0 0.0 1.0 0.06 0.65 0.58 94 1016.7
20210615212537 77 0 0.0 1.0 0.06 0.65 0.58 94 1016.7
20210615212037 77 0 0.0 1.0 0.06 0.65 0.58 94 1016.7
20210615211552 77 0 0.0 1.0 0.06 0.65 0.58 94 1016.7
20210615211032 76 18 0.0 1.0 0.06 0.65 0.58 94 1016.8
20210615210532 76 319 0.0 1.0 0.06 0.65 0.58 93 1016.7
20210615210042 76 108 0.0 1.0 0.06 0.65 0.58 93 1016.7
20210615205546 76 37 0.0 2.0 0.06 0.70 0.58 92 1016.6
20210615205056 76 0 0.0 3.0 0.06 0.70 0.58 92 1016.6
20210615204549 77 317 0.0 6.0 0.06 0.70 0.58 92 1016.9
20210615204033 78 324 1.0 6.0 0.03 0.67 0.55 92 1017.0
20210615203551 78 241 0.0 1.0 0.00 0.64 0.52 93 1017.1
20210615203046 78 0 0.0 1.0 0.00 0.64 0.52 93 1016.7
20210615202536 78 0 0.0 1.0 0.00 0.64 0.52 92 1016.7
20210615202034 78 0 0.0 1.0 0.00 0.64 0.52 92 1016.8
20210615201627 78 0 0.0 1.0 0.00 0.64 0.52 92 1016.8
20210615201032 78 88 0.0 1.0 0.00 0.64 0.52 93 1016.8
20210615200534 78 0 0.0 2.0 0.00 0.64 0.52 92 1016.8
20210615200110 78 86 0.0 2.0 0.00 0.64 0.52 92 1016.6
20210615195536 77 84 0.0 2.0 0.00 0.73 0.52 93 1016.6
20210615195033 77 103 0.0 2.0 0.00 0.73 0.52 93 1016.8
20210615194543 77 79 0.0 1.0 0.00 0.73 0.52 93 1016.9
20210615194035 76 286 0.0 2.0 0.00 0.73 0.52 93 1016.9
20210615193537 76 343 0.0 2.0 0.00 0.73 0.52 93 1016.8
20210615193146 76 164 0.0 2.0 0.00 0.73 0.52 93 1016.8
20210615192533 76 100 0.0 4.0 0.00 0.73 0.52 93 1016.8
20210615192032 76 340 0.0 5.0 0.00 0.73 0.52 92 1016.8
20210615191543 76 323 2.0 5.0 0.00 0.73 0.52 91 1017.0
20210615191037 77 227 1.0 4.0 0.00 0.73 0.52 92 1017.0
20210615190531 78 293 1.0 4.0 0.00 0.73 0.52 94 1016.8
20210615190233 78 0 0.0 3.0 0.01 0.73 0.52 95 1016.9
20210615185533 78 0 1.0 3.0 0.04 0.78 0.52 95 1016.6
20210615185033 78 0 0.0 1.0 0.04 0.78 0.52 95 1016.7
20210615184559 78 0 0.0 1.0 0.05 0.78 0.52 95 1016.4
20210615184033 78 0 0.0 1.0 0.06 0.78 0.52 95 1016.2
20210615183532 77 0 0.0 1.0 0.18 0.78 0.52 95 1016.4
20210615183133 77 0 0.0 1.0 0.41 0.78 0.52 95 1016.2
20210615182535 77 0 0.0 1.0 0.42 0.78 0.52 95 1016.4
20210615182041 76 0 0.0 1.0 0.42 0.78 0.52 94 1016.3
20210615181624 76 0 0.0 1.0 0.42 0.78 0.52 94 1016.1
20210615181045 76 0 0.0 1.0 0.42 0.78 0.52 94 1016.5
20210615180535 76 0 0.0 2.0 0.52 0.78 0.52 93 1016.8
20210615180106 76 31 1.0 2.0 0.51 0.77 0.51 93 1016.8
20210615175607 76 0 0.0 1.0 0.48 0.74 0.48 92 1017.0
20210615175034 77 139 0.0 2.0 0.48 0.74 0.48 92 1016.8
20210615174554 77 139 0.0 3.0 0.47 0.73 0.47 91 1017.0
20210615174037 77 0 0.0 4.0 0.46 0.72 0.46 88 1016.8
20210615173533 79 295 2.0 4.0 0.32 0.58 0.32 84 1017.2
20210615173110 82 253 1.0 4.0 0.10 0.36 0.10 85 1017.1
20210615172532 84 206 1.0 5.0 0.10 0.36 0.10 86 1016.4
20210615172035 85 64 1.0 5.0 0.10 0.36 0.10 84 1016.5
20210615171613 87 0 0.0 3.0 0.10 0.36 0.10 82 1016.3
20210615171040 89 267 1.0 6.0 0.10 0.36 0.10 79 1016.6
20210615170538 91 297 1.0 6.0 0.00 0.26 0.00 76 1016.6
20210615170045 91 271 2.0 6.0 0.00 0.26 0.00 72 1016.5
20210615165535 91 179 2.0 6.0 0.00 0.27 0.00 71 1016.5
20210615165038 91 206 1.0 5.0 0.00 0.27 0.00 73 1016.7
20210615164635 92 164 1.0 3.0 0.00 0.27 0.00 70 1017.0
20210615164034 92 260 1.0 5.0 0.00 0.27 0.00 70 1017.1
20210615163540 92 265 1.0 5.0 0.00 0.27 0.00 69 1017.1
20210615163106 92 136 1.0 4.0 0.00 0.27 0.00 69 1017.2
20210615162535 93 107 1.0 4.0 0.00 0.27 0.00 70 1017.2
20210615162045 93 196 1.0 4.0 0.00 0.27 0.00 69 1017.3